Thompson, Ohio, United States (44086)
Lat: 41.69N, Lon: 81.05W
Wx Zone: OHZ013
Local Info
Past Weather Observations for Sunday, July 27, 2014

NOTE: This archive is for the closest National Weather Service station to Thompson. Information may differ from the station used for current weather conditions.

Click here for Long-term Archive

Time Weather Temperature Dewpoint Humidity Pressure Winds Precip Visibility
23:53
Clear
59°F / 15°C 57°F / 14°C 94% 29.62 in
(1003 mb)
WNW 3.5 mph
(WNW 6 kph)
- 10SM
22:53
Clear
63°F / 17°C 59°F / 15°C 88% 29.65 in
(1004 mb)
ENE 5.8 mph
(ENE 9 kph)
- 10SM
22:08
Overcast
63°F / 17°C 59°F / 15°C 88% 29.68 in
(1005 mb)
NNE 5.8 mph
(NNE 9 kph)
- 10SM
21:53
Overcast
63°F / 17°C 61°F / 16°C 94% 29.68 in
(1005 mb)
Variable 6.9 mph
(Variable 11 kph)
0.05 in
(1.27 mm)
10SM
21:34
Overcast
63°F / 17°C 61°F / 16°C 94% 29.68 in
(1005 mb)
NE 9.2 mph
(NE 15 kph)
0.05 in
(1.27 mm)
10SM
21:12
Overcast
Rain
63°F / 17°C 61°F / 16°C 94% 29.68 in
(1005 mb)
NE 4.6 mph
(NE 7 kph)
0.04 in
(1.02 mm)
6SM
21:00
Overcast
Thunder Storms
63°F / 17°C 61°F / 16°C 94% 29.68 in
(1005 mb)
E 4.6 mph
(E 7 kph)
0.01 in
(0.25 mm)
8SM
20:53
Overcast
Thunder Storms
63°F / 17°C 61°F / 16°C 94% 29.68 in
(1005 mb)
Variable 4.6 mph
(Variable 7 kph)
1.16 in
(29.46 mm)
2 1/2SM
20:50
Overcast
Thunder Storms
63°F / 17°C 61°F / 16°C 94% 29.65 in
(1004 mb)
ENE 10.4 mph
(ENE 17 kph)
1.16 in
(29.46 mm)
1SM
20:43
Overcast
Thunder Storms
63°F / 17°C 61°F / 16°C 94% 29.65 in
(1004 mb)
Calm 1.13 in
(28.70 mm)
1/2SM
20:37
Overcast
Thunder Storms
63°F / 17°C 61°F / 16°C 94% 29.74 in
(1007 mb)
W 24.2 mph
(W 39 kph)
0.69 in
(17.53 mm)
1SM
20:35
Overcast
Thunder Storms
63°F / 17°C 61°F / 16°C 94% 29.74 in
(1007 mb)
WNW 19.6 mph
(WNW 32 kph)
0.56 in
(14.22 mm)
1 1/4SM
20:26
Overcast
Thunder Storms
63°F / 17°C 61°F / 16°C 94% 29.65 in
(1004 mb)
N 6.9 mph
(N 11 kph)
0.33 in
(8.38 mm)
2 1/2SM
20:15
Overcast
Thunder Storms
63°F / 17°C 61°F / 16°C 94% 29.65 in
(1004 mb)
ENE 5.8 mph
(ENE 9 kph)
0.21 in
(5.33 mm)
1 1/2SM
20:07
Overcast
Thunder Storms
64°F / 18°C 61°F / 16°C 88% 29.65 in
(1004 mb)
SSW 3.5 mph
(SSW 6 kph)
0.07 in
(1.78 mm)
2 1/2SM
19:53
Overcast
Thunder Storms
64°F / 18°C 61°F / 16°C 88% 29.62 in
(1003 mb)
ESE 5.8 mph
(ESE 9 kph)
0.04 in
(1.02 mm)
10SM
19:38
Overcast
Thunder Storms
64°F / 18°C 61°F / 16°C 88% 29.65 in
(1004 mb)
SSE 3.5 mph
(SSE 6 kph)
0.02 in
(0.51 mm)
9SM
19:23
Overcast
Thunder Storms
64°F / 18°C 61°F / 16°C 88% 29.65 in
(1004 mb)
SE 8.1 mph
(SE 13 kph)
0.01 in
(0.25 mm)
10SM
19:09
Overcast
Thunder Storms
64°F / 18°C 63°F / 17°C 94% 29.65 in
(1004 mb)
SE 6.9 mph
(SE 11 kph)
0.01 in
(0.25 mm)
10SM
18:53
Overcast
Thunder Storms
66°F / 19°C 63°F / 17°C 88% 29.65 in
(1004 mb)
SE 3.5 mph
(SE 6 kph)
0.01 in
(0.25 mm)
10SM
18:46
Overcast
Thunder Storms
66°F / 19°C 63°F / 17°C 88% 29.65 in
(1004 mb)
ESE 4.6 mph
(ESE 7 kph)
0.01 in
(0.25 mm)
10SM
18:37
Overcast
Thunder Storms
66°F / 19°C 63°F / 17°C 88% 29.65 in
(1004 mb)
SE 6.9 mph
(SE 11 kph)
0.01 in
(0.25 mm)
10SM
17:53
Mostly Cloudy
66°F / 19°C 63°F / 17°C 88% 29.68 in
(1005 mb)
SE 8.1 mph
(SE 13 kph)
0.00 in
(0.00 mm)
10SM
17:23
Mostly Cloudy
Light Rain
68°F / 20°C 63°F / 17°C 83% 29.68 in
(1005 mb)
SW 8.1 mph
(SW 13 kph)
0.00 in
(0.00 mm)
10SM
16:53
Overcast
Thunder Storms
72°F / 22°C 68°F / 20°C 88% 29.65 in
(1004 mb)
Variable 4.6 mph
(Variable 7 kph)
0.04 in
(1.02 mm)
5SM
15:53
Mostly Cloudy
Thunder Storms
73°F / 23°C 68°F / 20°C 83% 29.65 in
(1004 mb)
N 3.5 mph
(N 6 kph)
0.01 in
(0.25 mm)
8SM
15:41
Mostly Cloudy
Thunder Storms
73°F / 23°C 68°F / 20°C 83% 29.68 in
(1005 mb)
NNW 5.8 mph
(NNW 9 kph)
0.01 in
(0.25 mm)
8SM
15:32
Overcast
Light Rain
73°F / 23°C 68°F / 20°C 83% 29.65 in
(1004 mb)
NE 4.6 mph
(NE 7 kph)
0.01 in
(0.25 mm)
7SM
15:17
Mostly Cloudy
Thunder Storms
75°F / 24°C 68°F / 20°C 78% 29.68 in
(1005 mb)
NE 5.8 mph
(NE 9 kph)
0.00 in
(0.00 mm)
8SM
14:53
Mostly Cloudy
79°F / 26°C 66°F / 19°C 65% 29.68 in
(1005 mb)
NE 5.8 mph
(NE 9 kph)
- 10SM
13:53
Partly Cloudy
82°F / 28°C 64°F / 18°C 55% 29.74 in
(1007 mb)
Variable 4.6 mph
(Variable 7 kph)
- 10SM
12:53
Mostly Cloudy
81°F / 27°C 64°F / 18°C 58% 29.77 in
(1008 mb)
SW 10.4 mph
(SW 17 kph)
- 10SM
11:53
Partly Cloudy
81°F / 27°C 64°F / 18°C 58% 29.77 in
(1008 mb)
SSE 6.9 mph
(SSE 11 kph)
- 10SM
10:53
Mostly Cloudy
79°F / 26°C 66°F / 19°C 65% 29.8 in
(1009 mb)
SSW 8.1 mph
(SSW 13 kph)
- 10SM
10:17
Mostly Cloudy
75°F / 24°C 64°F / 18°C 69% 29.8 in
(1009 mb)
SW 8.1 mph
(SW 13 kph)
- 10SM
10:07
Mostly Cloudy
77°F / 25°C 66°F / 19°C 69% 29.8 in
(1009 mb)
SW 6.9 mph
(SW 11 kph)
- 10SM
09:53
Partly Cloudy
75°F / 24°C 66°F / 19°C 74% 29.8 in
(1009 mb)
SSW 8.1 mph
(SSW 13 kph)
- 10SM
09:19
Partly Cloudy
73°F / 23°C 66°F / 19°C 78% 29.8 in
(1009 mb)
SSE 5.8 mph
(SSE 9 kph)
- 8SM
08:53
Mostly Cloudy
Hazy
72°F / 22°C 66°F / 19°C 83% 29.8 in
(1009 mb)
SSW 6.9 mph
(SSW 11 kph)
- 6SM
08:03
Overcast
Fog And Mist
72°F / 22°C 68°F / 20°C 88% 29.8 in
(1009 mb)
SW 3.5 mph
(SW 6 kph)
- 5SM
07:53
Mostly Cloudy
Hazy
72°F / 22°C 66°F / 19°C 83% 29.8 in
(1009 mb)
SW 5.8 mph
(SW 9 kph)
- 4SM
07:42
Mostly Cloudy
Fog And Mist
72°F / 22°C 68°F / 20°C 88% 29.8 in
(1009 mb)
SW 5.8 mph
(SW 9 kph)
- 4SM
07:33
Mostly Cloudy
Fog And Mist
72°F / 22°C 68°F / 20°C 88% 29.8 in
(1009 mb)
SW 5.8 mph
(SW 9 kph)
- 3SM
07:21
Mostly Cloudy
Fog And Mist
72°F / 22°C 68°F / 20°C 88% 29.8 in
(1009 mb)
SW 5.8 mph
(SW 9 kph)
- 3SM
07:16
Mostly Cloudy
Fog And Mist
70°F / 21°C 68°F / 20°C 94% 29.8 in
(1009 mb)
SW 5.8 mph
(SW 9 kph)
- 2 1/2SM
07:08
Partly Cloudy
Fog And Mist
70°F / 21°C 68°F / 20°C 94% 29.8 in
(1009 mb)
SW 3.5 mph
(SW 6 kph)
- 2SM
06:53
Partly Cloudy
Fog And Mist
70°F / 21°C 68°F / 20°C 94% 29.8 in
(1009 mb)
Calm - 1 3/4SM
06:24
Overcast
Fog And Mist
68°F / 20°C 66°F / 19°C 94% 29.8 in
(1009 mb)
Calm - 1 1/4SM
05:55
Overcast
Fog And Mist
66°F / 19°C 64°F / 18°C 94% 29.8 in
(1009 mb)
Calm - 1 1/4SM
05:53
Overcast
Fog And Mist
66°F / 19°C 64°F / 18°C 94% 29.8 in
(1009 mb)
Calm - 1SM
05:35
Overcast
Fog And Mist
66°F / 19°C 64°F / 18°C 94% 29.8 in
(1009 mb)
Calm - 3/4SM
05:16
Obscured
Fog And Mist
64°F / 18°C 63°F / 17°C 94% 29.8 in
(1009 mb)
SW 3.5 mph
(SW 6 kph)
- 1SM
05:08
Partly Cloudy
Fog And Mist
64°F / 18°C 63°F / 17°C 94% 29.8 in
(1009 mb)
SW 4.6 mph
(SW 7 kph)
- 1 3/4SM
04:53
Clear
Fog And Mist
66°F / 19°C 64°F / 18°C 94% 29.8 in
(1009 mb)
SSW 3.5 mph
(SSW 6 kph)
- 1SM
04:50
Clear
Fog And Mist
66°F / 19°C 64°F / 18°C 94% 29.8 in
(1009 mb)
SSW 3.5 mph
(SSW 6 kph)
- 1 3/4SM
04:05
Partly Cloudy
Fog And Mist
66°F / 19°C 64°F / 18°C 94% 29.8 in
(1009 mb)
W 4.6 mph
(W 7 kph)
- 3SM
03:53
Mostly Cloudy
Fog And Mist
66°F / 19°C 64°F / 18°C 94% 29.8 in
(1009 mb)
W 4.6 mph
(W 7 kph)
- 4SM
03:40
Mostly Cloudy
Fog And Mist
68°F / 20°C 66°F / 19°C 94% 29.8 in
(1009 mb)
SSW 4.6 mph
(SSW 7 kph)
- 5SM
03:22
Mostly Cloudy
Fog And Mist
68°F / 20°C 66°F / 19°C 94% 29.8 in
(1009 mb)
SSW 4.6 mph
(SSW 7 kph)
- 5SM
03:18
Partly Cloudy
Fog And Mist
68°F / 20°C 66°F / 19°C 94% 29.8 in
(1009 mb)
SSW 5.8 mph
(SSW 9 kph)
- 6SM
02:53
Mostly Cloudy
70°F / 21°C 66°F / 19°C 88% 29.8 in
(1009 mb)
SSW 5.8 mph
(SSW 9 kph)
- 8SM
01:53
Overcast
70°F / 21°C 66°F / 19°C 88% 29.8 in
(1009 mb)
SW 8.1 mph
(SW 13 kph)
- 10SM
00:53
Overcast
70°F / 21°C 66°F / 19°C 88% 29.83 in
(1010 mb)
SW 6.9 mph
(SW 11 kph)
- 10SM
Time Weather Temperature Dewpoint Humidity Pressure Winds Precip Visibility


Weather for websites

WeatherForYou.com, LLC is not responsible for any damages or problems caused by this service. Current weather conditions are obtained from the closest station including government and personal stations which may have varying degrees of accuracy. Weather forecasts are derived from the NOAA NDFD. Like all things, this site belongs to Jesus Christ... He just trusts me to maintain it. If you have any questions or comments email webmaster@weatherforyou.com

Copyright © 2014, WeatherForYou.com LLC. All rights reserved.